Regional Weather Roundup
Issued by NWS

Home | Current Version | Previous Version | Graphics & Text | Print | Product List | Glossary On
Versions: 1 2 3 4 5 6 7 8 9 10 11 12 13 14 15 16 17 18 19 20 21 22 23 24 25 26 27 28 29 30 31 32 33 34 35 36 37 38 39 40 41 42 43 44 45 46 47 48 49 50
000
ASUS45 KABQ 191810
RWRNM
NEW MEXICO REGIONAL WEATHER ROUNDUP
NATIONAL WEATHER SERVICE ALBUQUERQUE NM
1200 PM MDT TUE SEP 19 2017

NOTE: "FAIR" MEANS FEW OR NO CLOUDS BELOW 12,000 FEET AGL WITH NO
       SIGNIFICANT WEATHER OR OBSTRUCTIONS TO VISION.

      THIS PRODUCT IS RELEASED AS TWO VERSIONS.  ONE VERSION NEAR
      THE TOP OF THE HOUR CONTAINING PRELIMINARY DATA FROM ALBUQUERQUE
      AND OTHER STATIONS.  A FINAL VERSION WITH ADDITIONAL DATA IS
      ISSUED ABOUT 10 MINUTES AFTER THE HOUR.

NMZ501-503-504-510>518-191900-
NORTHWEST PLATEAU/NORTHCENTRAL MOUNTAINS

CITY           SKY/WX    TMP DP  RH WIND       PRES   REMARKS
FARMINGTON     FAIR      71  23  16 VRB7      30.02F
6HR MIN TEMP:  40; 6HR MAX TEMP:  71;

LOS ALAMOS     FAIR      71  23  16 W10G20    30.12F
SANTA FE       FAIR      75  26  16 W14G23    30.07F
6HR MIN TEMP:  46; 6HR MAX TEMP:  75;

TAOS           FAIR      72  25  17 SW22G31   30.09F
ANGEL FIRE     FAIR      58  21  23 SW16G29   30.15R

$$
NMZ402-403-502-505>509-191900-
WESTCENTRAL MOUNTAINS/SOUTHWEST MOUNTAINS

CITY           SKY/WX    TMP DP  RH WIND       PRES   REMARKS
GALLUP         FAIR      73  18  12 SW24G32   30.12F
6HR MIN TEMP:  41; 6HR MAX TEMP:  73;

GRANTS         FAIR      75  17  11 W18G26    30.14S
SILVER CITY    PTSUNNY   79  49  34 W17G28    30.13F

$$
NMZ407-409-411-412-191900-
SOUTHERN DESERTS

CITY           SKY/WX    TMP DP  RH WIND       PRES   REMARKS
DEMING         FAIR      85  55  35 W17G28    30.06F
6HR MIN TEMP:  56; 6HR MAX TEMP:  85;

LAS CRUCES     FAIR      85  43  23 W17G24    30.08F
HOLLOMAN AFB   FAIR      90  46  21 SW12G20   30.03F
ALAMOGORDO     FAIR      84  45  24 S5        30.04F
T OR C         FAIR      87  38  17 W18G25    30.02F
6HR MIN TEMP:  59; 6HR MAX TEMP:  87;


$$
NMZ519>523-191900-
CENTRAL VALLEYS/CENTRAL HIGHLANDS

CITY           SKY/WX    TMP DP  RH WIND       PRES   REMARKS
ALBUQUERQUE    FAIR      76  35  22 SW10      30.05F
6HR MIN TEMP:  55; 6HR MAX TEMP:  76;

DOUBLE EAGLE   MOSUNNY   77  34  20 SW17G25   30.08F
MORIARTY ARPT  FAIR      78  32  18 W24G30    30.10S
CLINES CORNERS FAIR      73  27  18 W28G41    30.10F
6HR MIN TEMP:  47; 6HR MAX TEMP:  73;

BELEN          FAIR      83  32  15 W13G20    30.03F
6HR MIN TEMP:  49; 6HR MAX TEMP:  83;

SOCORRO        FAIR      85  31  14 CALM      30.01F
6HR MIN TEMP:  51; 6HR MAX TEMP:  85;


$$
NMZ524>526-539-540-191900-
SOUTHCENTRAL MOUNTAINS

CITY           SKY/WX    TMP DP  RH WIND       PRES   REMARKS
RUIDOSO        FAIR      75  36  23 SW26G33   30.15F

$$
NMZ527>531-191900-
NORTHEAST HIGHLANDS/NORTHEAST PLAINS

CITY           SKY/WX    TMP DP  RH WIND       PRES   REMARKS
LAS VEGAS      FAIR      73  22  14 SW18G26   30.03F
6HR MIN TEMP:  48; 6HR MAX TEMP:  74;

RATON          FAIR      78  19  11 W12G21    29.92F
6HR MIN TEMP:  39; 6HR MAX TEMP:  78;

CLAYTON        FAIR      83  19   9 SW21G29   29.85F
6HR MIN TEMP:  55; 6HR MAX TEMP:  83;


$$
NMZ532>537-191900-
EASTCENTRAL PLAINS

CITY           SKY/WX    TMP DP  RH WIND       PRES   REMARKS
SANTA ROSA     FAIR      85  32  15 SW24G32   29.93F
TUCUMCARI      FAIR      90  29  11 SW21G36   29.86F
6HR MIN TEMP:  56; 6HR MAX TEMP:  90;

CANNON AFB     FAIR      85  41  20 SW23G30   29.95F
6HR MIN TEMP:  58; 6HR MAX TEMP:  86;

CLOVIS AIRPORT FAIR      85  43  22 SW24      29.94F

$$
NMZ028-029-538-191900-
SOUTHEAST PLAINS

CITY           SKY/WX    TMP DP  RH WIND       PRES   REMARKS
ROSWELL        FAIR      94  43  17 W10G26    29.91F
6HR MIN TEMP:  62; 6HR MAX TEMP:  95;

ARTESIA        FAIR      93  46  20 SW23G32   29.93F
CARLSBAD       FAIR      94  46  19 SW15      29.92F
6HR MIN TEMP:  63; 6HR MAX TEMP:  94;

HOBBS          SUNNY     90  48  24 SW12      29.97F


$$




USA.gov is the U.S. government's official web portal to all federal, state and local government web resources and services.